| time (UTC) | temp F | wind direction | speed knots | gust knots | rain 1hr in | rain 24hr in | rain mn in | humidity % | barometer mb |
| 20260506202159 | 57 | 167 | 4.3 | 14.8 | 0.00 | 0.04 | 0.04 | 91 | 1007.8 |
| 20260506201658 | 57 | 247 | 5.2 | 16.5 | 0.00 | 0.04 | 0.04 | 91 | 1007.9 |
| 20260506201158 | 57 | 213 | 4.3 | 16.5 | 0.00 | 0.04 | 0.04 | 91 | 1007.9 |
| 20260506200657 | 57 | 229 | 4.3 | 15.6 | 0.00 | 0.04 | 0.04 | 91 | 1008.0 |
| 20260506200159 | 57 | 192 | 4.3 | 15.6 | 0.00 | 0.04 | 0.04 | 91 | 1008.0 |
| 20260506195658 | 57 | 231 | 4.3 | 13.9 | 0.00 | 0.04 | 0.04 | 91 | 1008.0 |
| 20260506195159 | 57 | 193 | 5.2 | 14.8 | 0.00 | 0.04 | 0.04 | 91 | 1008.0 |
| 20260506194653 | 57 | 156 | 4.3 | 14.8 | 0.00 | 0.04 | 0.04 | 91 | 1007.9 |
| 20260506194147 | 57 | 267 | 4.3 | 12.2 | 0.00 | 0.04 | 0.04 | 91 | 1008.1 |
| 20260506193911 | 57 | 227 | 5.2 | 13.9 | 0.00 | 0.04 | 0.04 | 91 | 1008.1 |
| 20260506193135 | 57 | 207 | 4.3 | 15.6 | 0.00 | 0.04 | 0.04 | 91 | 1008.0 |
| 20260506192628 | 57 | 190 | 3.5 | 15.6 | 0.00 | 0.04 | 0.04 | 91 | 1008.1 |
| 20260506192123 | 57 | 202 | 3.5 | 15.6 | 0.00 | 0.04 | 0.04 | 91 | 1008.2 |
| 20260506191616 | 57 | 229 | 4.3 | 12.2 | 0.00 | 0.04 | 0.04 | 91 | 1008.2 |
| 20260506191111 | 57 | 186 | 5.2 | 13.0 | 0.01 | 0.04 | 0.04 | 91 | 1008.5 |
| 20260506190605 | 57 | 168 | 5.2 | 14.8 | 0.01 | 0.04 | 0.04 | 91 | 1008.5 |
| 20260506190058 | 58 | 209 | 4.3 | 14.8 | 0.01 | 0.04 | 0.04 | 90 | 1008.5 |
| 20260506185553 | 58 | 226 | 4.3 | 12.2 | 0.02 | 0.04 | 0.04 | 90 | 1008.3 |
| 20260506185047 | 58 | 160 | 4.3 | 12.2 | 0.03 | 0.04 | 0.04 | 90 | 1008.5 |
| 20260506184540 | 58 | 190 | 5.2 | 12.2 | 0.03 | 0.04 | 0.04 | 90 | 1008.6 |
| 20260506184034 | 58 | 227 | 5.2 | 12.2 | 0.04 | 0.04 | 0.04 | 90 | 1008.9 |
| 20260506183529 | 58 | 223 | 5.2 | 14.8 | 0.04 | 0.04 | 0.04 | 90 | 1008.9 |
| 20260506183022 | 58 | 228 | 3.5 | 14.8 | 0.04 | 0.04 | 0.04 | 90 | 1009.0 |
| 20260506182517 | 58 | 203 | 3.5 | 12.2 | 0.04 | 0.04 | 0.04 | 90 | 1009.0 |
| 20260506182011 | 58 | 115 | 5.2 | 13.9 | 0.04 | 0.04 | 0.04 | 90 | 1009.2 |
| 20260506181505 | 58 | 249 | 5.2 | 14.8 | 0.04 | 0.04 | 0.04 | 89 | 1009.2 |
| 20260506180959 | 58 | 219 | 5.2 | 14.8 | 0.03 | 0.03 | 0.03 | 89 | 1009.1 |
| 20260506180453 | 57 | 228 | 4.3 | 11.3 | 0.03 | 0.03 | 0.03 | 89 | 1009.3 |
| 20260506175947 | 57 | 225 | 4.3 | 13.9 | 0.02 | 0.02 | 0.03 | 88 | 1009.4 |
| 20260506175444 | 58 | 209 | 3.5 | 14.8 | 0.02 | 0.02 | 0.02 | 88 | 1009.4 |
| 20260506175439 | 58 | 211 | 3.5 | 14.8 | 0.01 | 0.01 | 0.01 | 87 | 1009.5 |
| 20260506174429 | 58 | 148 | 3.5 | 11.3 | 0.01 | 0.01 | 0.01 | 87 | 1009.6 |
| 20260506173923 | 58 | 163 | 4.3 | 13.0 | 0.00 | 0.00 | 0.00 | 86 | 1009.6 |
| 20260506173417 | 58 | 227 | 5.2 | 13.0 | 0.00 | 0.00 | 0.00 | 86 | 1009.8 |
| 20260506172911 | 58 | 173 | 5.2 | 14.8 | 0.00 | 0.00 | 0.00 | 86 | 1009.9 |
| 20260506172404 | 58 | 197 | 4.3 | 14.8 | 0.00 | 0.00 | 0.00 | 85 | 1009.9 |
| 20260506171859 | 58 | 233 | 4.3 | 13.0 | 0.00 | 0.00 | 0.00 | 85 | 1010.0 |
| 20260506171353 | 59 | 215 | 4.3 | 15.6 | 0.00 | 0.00 | 0.00 | 85 | 1010.0 |
| 20260506170847 | 59 | 236 | 6.1 | 15.6 | 0.00 | 0.00 | 0.00 | 84 | 1010.2 |
| 20260506170347 | 59 | 228 | 5.2 | 13.0 | 0.00 | 0.00 | 0.00 | 84 | 1010.0 |
| 20260506165847 | 59 | 241 | 4.3 | 16.5 | 0.00 | 0.00 | 0.00 | 83 | 1010.1 |
| 20260506165346 | 59 | 163 | 4.3 | 16.5 | 0.00 | 0.00 | 0.00 | 83 | 1010.1 |
| 20260506164846 | 60 | 228 | 3.5 | 13.0 | 0.00 | 0.00 | 0.00 | 83 | 1010.2 |
| 20260506164345 | 60 | 213 | 4.3 | 13.0 | 0.00 | 0.00 | 0.00 | 83 | 1010.3 |
| 20260506163846 | 60 | 225 | 5.2 | 12.2 | 0.00 | 0.00 | 0.00 | 83 | 1010.3 |
| 20260506163617 | 60 | 182 | 5.2 | 15.6 | 0.00 | 0.00 | 0.00 | 83 | 1010.3 |
| 20260506163116 | 60 | 265 | 4.3 | 15.6 | 0.00 | 0.00 | 0.00 | 83 | 1010.2 |
| 20260506162345 | 60 | 227 | 4.3 | 12.2 | 0.00 | 0.00 | 0.00 | 83 | 1010.4 |
| 20260506161848 | 60 | 170 | 5.2 | 13.0 | 0.00 | 0.00 | 0.00 | 82 | 1010.2 |
| 20260506161614 | 60 | 144 | 5.2 | 13.9 | 0.00 | 0.00 | 0.00 | 82 | 1010.4 |
| 20260506160842 | 60 | 262 | 4.3 | 13.9 | 0.00 | 0.00 | 0.00 | 81 | 1010.6 |
| 20260506160613 | 60 | 222 | 4.3 | 14.8 | 0.00 | 0.00 | 0.00 | 81 | 1010.5 |
| 20260506155842 | 61 | 240 | 4.3 | 14.8 | 0.00 | 0.00 | 0.00 | 81 | 1010.6 |
| 20260506155612 | 61 | 178 | 4.3 | 13.0 | 0.00 | 0.00 | 0.00 | 81 | 1010.6 |
| 20260506154842 | 61 | 220 | 5.2 | 15.6 | 0.00 | 0.00 | 0.00 | 82 | 1010.6 |
| 20260506154343 | 61 | 207 | 6.1 | 15.6 | 0.00 | 0.00 | 0.00 | 81 | 1010.6 |
| 20260506153837 | 61 | 209 | 5.2 | 14.8 | 0.00 | 0.00 | 0.00 | 81 | 1010.7 |
| 20260506153331 | 61 | 249 | 5.2 | 13.0 | 0.00 | 0.00 | 0.00 | 81 | 1010.9 |
| 20260506152825 | 61 | 187 | 3.5 | 13.0 | 0.00 | 0.00 | 0.00 | 81 | 1011.0 |
| 20260506152319 | 61 | 200 | 4.3 | 14.8 | 0.00 | 0.00 | 0.00 | 81 | 1011.1 |
| 20260506152044 | 62 | 59 | 5.2 | 14.8 | 0.00 | 0.00 | 0.00 | 81 | 1011.0 |
| 20260506151306 | 62 | 163 | 4.3 | 13.9 | 0.00 | 0.00 | 0.00 | 81 | 1010.8 |
| 20260506150800 | 62 | 228 | 4.3 | 13.0 | 0.00 | 0.00 | 0.00 | 82 | 1010.8 |
| 20260506150304 | 62 | 224 | 5.2 | 13.9 | 0.00 | 0.00 | 0.00 | 81 | 1010.8 |
| 20260506145749 | 62 | 232 | 4.3 | 14.8 | 0.00 | 0.00 | 0.00 | 80 | 1010.9 |
| 20260506145243 | 62 | 287 | 4.3 | 14.8 | 0.00 | 0.00 | 0.00 | 79 | 1010.8 |
| 20260506144736 | 62 | 174 | 5.2 | 12.2 | 0.00 | 0.00 | 0.00 | 78 | 1010.8 |
| 20260506144230 | 63 | 224 | 4.3 | 13.9 | 0.00 | 0.00 | 0.00 | 77 | 1011.1 |
| 20260506143725 | 63 | 231 | 3.5 | 13.9 | 0.00 | 0.00 | 0.00 | 77 | 1011.2 |
| 20260506143219 | 64 | 281 | 3.5 | 9.6 | 0.00 | 0.00 | 0.00 | 77 | 1011.4 |
| 20260506142719 | 64 | 209 | 3.5 | 9.6 | 0.00 | 0.00 | 0.00 | 77 | 1011.3 |
| 20260506142220 | 64 | 198 | 3.5 | 9.6 | 0.00 | 0.00 | 0.00 | 77 | 1011.2 |
| 20260506141717 | 64 | 190 | 2.6 | 12.2 | 0.00 | 0.00 | 0.00 | 78 | 1011.3 |
| 20260506141218 | 64 | 209 | 2.6 | 12.2 | 0.00 | 0.00 | 0.00 | 78 | 1011.3 |
| 20260506140718 | 64 | 249 | 3.5 | 10.4 | 0.00 | 0.00 | 0.00 | 79 | 1011.2 |
| 20260506140449 | 63 | 227 | 4.3 | 12.2 | 0.00 | 0.00 | 0.00 | 81 | 1011.3 |
| 20260506135719 | 62 | 152 | 3.5 | 12.2 | 0.00 | 0.00 | 0.00 | 81 | 1011.4 |
| 20260506135219 | 62 | 263 | 3.5 | 11.3 | 0.00 | 0.00 | 0.00 | 80 | 1011.4 |
| 20260506134717 | 62 | 167 | 4.3 | 10.4 | 0.00 | 0.00 | 0.00 | 79 | 1011.4 |
| 20260506134216 | 63 | 191 | 4.3 | 11.3 | 0.00 | 0.00 | 0.00 | 80 | 1011.6 |
| 20260506133716 | 63 | 163 | 5.2 | 14.8 | 0.00 | 0.00 | 0.00 | 80 | 1011.6 |
| 20260506133216 | 63 | 156 | 4.3 | 14.8 | 0.00 | 0.00 | 0.00 | 81 | 1011.5 |
| 20260506132716 | 62 | 208 | 3.5 | 13.0 | 0.00 | 0.00 | 0.00 | 82 | 1011.4 |
| 20260506132217 | 62 | 149 | 4.3 | 12.2 | 0.00 | 0.00 | 0.00 | 83 | 1011.5 |
| 20260506131716 | 61 | 208 | 3.5 | 12.2 | 0.00 | 0.00 | 0.00 | 83 | 1011.4 |
| 20260506131217 | 61 | 165 | 2.6 | 11.3 | 0.00 | 0.00 | 0.00 | 83 | 1011.3 |
| 20260506130717 | 61 | 216 | 2.6 | 9.6 | 0.00 | 0.00 | 0.00 | 82 | 1011.4 |
| 20260506130211 | 61 | 227 | 3.5 | 9.6 | 0.00 | 0.00 | 0.00 | 82 | 1011.5 |
| 20260506125705 | 61 | 198 | 4.3 | 13.9 | 0.00 | 0.00 | 0.00 | 82 | 1011.5 |
| 20260506125159 | 61 | 168 | 4.3 | 13.9 | 0.00 | 0.00 | 0.00 | 82 | 1011.6 |
| 20260506124652 | 62 | 158 | 2.6 | 12.2 | 0.00 | 0.00 | 0.00 | 83 | 1011.8 |
| 20260506124147 | 61 | 237 | 3.5 | 13.0 | 0.00 | 0.00 | 0.00 | 83 | 1011.6 |
| 20260506123641 | 61 | 186 | 4.3 | 13.0 | 0.00 | 0.00 | 0.00 | 83 | 1011.6 |
| 20260506123134 | 61 | 216 | 4.3 | 10.4 | 0.00 | 0.00 | 0.00 | 84 | 1011.7 |
| 20260506122632 | 61 | 163 | 4.3 | 9.6 | 0.00 | 0.00 | 0.00 | 84 | 1011.8 |
| 20260506122131 | 61 | 220 | 4.3 | 11.3 | 0.00 | 0.00 | 0.00 | 85 | 1012.0 |
| 20260506121629 | 61 | 146 | 3.5 | 11.3 | 0.00 | 0.00 | 0.00 | 86 | 1012.0 |
| 20260506121131 | 61 | 214 | 4.3 | 12.2 | 0.00 | 0.00 | 0.00 | 87 | 1011.8 |
| 20260506120630 | 61 | 206 | 3.5 | 12.2 | 0.00 | 0.00 | 0.00 | 89 | 1011.8 |
| 20260506120133 | 60 | 247 | 2.6 | 11.3 | 0.00 | 0.00 | 0.00 | 91 | 1011.7 |
| 20260506120129 | 60 | 156 | 2.6 | 12.2 | 0.00 | 0.00 | 0.00 | 91 | 1011.8 |
| 20260506115131 | 59 | 159 | 3.5 | 11.3 | 0.00 | 0.00 | 0.00 | 92 | 1011.6 |
| 20260506114630 | 59 | 196 | 3.5 | 10.4 | 0.00 | 0.00 | 0.00 | 92 | 1011.7 |
| 20260506114130 | 58 | 211 | 3.5 | 9.6 | 0.00 | 0.00 | 0.00 | 92 | 1011.6 |
| 20260506113630 | 58 | 254 | 2.6 | 10.4 | 0.00 | 0.00 | 0.00 | 92 | 1011.5 |
| 20260506113130 | 58 | 258 | 3.5 | 10.4 | 0.00 | 0.00 | 0.00 | 92 | 1011.6 |
| 20260506112630 | 57 | 181 | 3.5 | 10.4 | 0.00 | 0.00 | 0.00 | 92 | 1011.7 |
| 20260506112401 | 57 | 225 | 3.5 | 10.4 | 0.00 | 0.00 | 0.00 | 92 | 1011.8 |
| 20260506111632 | 57 | 257 | 3.5 | 13.0 | 0.00 | 0.00 | 0.00 | 92 | 1011.8 |
| 20260506111130 | 57 | 219 | 3.5 | 13.0 | 0.00 | 0.00 | 0.00 | 92 | 1011.7 |
| 20260506110630 | 57 | 272 | 4.3 | 10.4 | 0.00 | 0.00 | 0.00 | 92 | 1011.8 |
| 20260506110124 | 56 | 185 | 4.3 | 10.4 | 0.00 | 0.00 | 0.00 | 92 | 1011.6 |
| 20260506105618 | 56 | 230 | 3.5 | 13.9 | 0.00 | 0.00 | 0.00 | 92 | 1011.6 |
| 20260506105112 | 56 | 178 | 3.5 | 13.9 | 0.00 | 0.00 | 0.00 | 92 | 1011.5 |
| 20260506104606 | 56 | 184 | 3.5 | 10.4 | 0.00 | 0.00 | 0.00 | 92 | 1011.4 |
| 20260506104101 | 56 | 205 | 3.5 | 12.2 | 0.00 | 0.00 | 0.00 | 92 | 1011.3 |
| 20260506103557 | 56 | 215 | 2.6 | 12.2 | 0.00 | 0.00 | 0.00 | 92 | 1011.4 |
| 20260506103551 | 56 | 320 | 2.6 | 9.6 | 0.00 | 0.00 | 0.00 | 91 | 1011.5 |
| 20260506102547 | 56 | 196 | 3.5 | 9.6 | 0.00 | 0.00 | 0.00 | 91 | 1011.4 |
| 20260506102047 | 56 | 148 | 3.5 | 9.6 | 0.00 | 0.00 | 0.00 | 91 | 1011.4 |
| 20260506101818 | 56 | 170 | 3.5 | 11.3 | 0.00 | 0.00 | 0.00 | 91 | 1011.3 |
| 20260506101044 | 56 | 214 | 3.5 | 11.3 | 0.00 | 0.00 | 0.00 | 91 | 1011.4 |
| 20260506100543 | 56 | 199 | 3.5 | 15.6 | 0.00 | 0.00 | 0.00 | 91 | 1011.4 |
| 20260506100314 | 56 | 199 | 2.6 | 15.6 | 0.00 | 0.00 | 0.00 | 91 | 1011.4 |
| 20260506095544 | 56 | 355 | 2.6 | 12.2 | 0.00 | 0.00 | 0.00 | 91 | 1011.5 |
| 20260506095043 | 56 | 137 | 3.5 | 12.2 | 0.00 | 0.00 | 0.00 | 91 | 1011.4 |
| 20260506094544 | 56 | 261 | 3.5 | 10.4 | 0.00 | 0.00 | 0.00 | 91 | 1011.3 |
| 20260506094043 | 56 | 213 | 2.6 | 10.4 | 0.00 | 0.00 | 0.00 | 91 | 1011.3 |
| 20260506093544 | 56 | 182 | 2.6 | 7.8 | 0.00 | 0.00 | 0.00 | 91 | 1011.5 |
| 20260506093045 | 56 | 193 | 1.7 | 7.0 | 0.00 | 0.00 | 0.00 | 91 | 1011.5 |
| 20260506092545 | 56 | 214 | 1.7 | 7.0 | 0.00 | 0.00 | 0.00 | 91 | 1011.5 |
| 20260506092313 | 56 | 231 | 2.6 | 7.0 | 0.00 | 0.00 | 0.00 | 91 | 1011.5 |
| 20260506091542 | 56 | 243 | 2.6 | 7.8 | 0.00 | 0.00 | 0.00 | 90 | 1011.5 |
| 20260506091042 | 56 | 257 | 1.7 | 7.8 | 0.00 | 0.00 | 0.00 | 90 | 1011.6 |
| 20260506090545 | 56 | 237 | 2.6 | 12.2 | 0.00 | 0.00 | 0.00 | 90 | 1011.6 |
| 20260506090038 | 56 | 223 | 3.5 | 12.2 | 0.00 | 0.00 | 0.00 | 90 | 1011.5 |
| 20260506085532 | 56 | 139 | 4.3 | 13.0 | 0.00 | 0.00 | 0.00 | 90 | 1011.6 |
| 20260506085026 | 56 | 207 | 4.3 | 13.0 | 0.00 | 0.00 | 0.00 | 90 | 1011.5 |
| 20260506084525 | 56 | 144 | 3.5 | 12.2 | 0.00 | 0.00 | 0.00 | 90 | 1011.5 |
| 20260506084520 | 56 | 246 | 3.5 | 12.2 | 0.00 | 0.00 | 0.00 | 90 | 1011.5 |
| 20260506083516 | 56 | 154 | 3.5 | 12.2 | 0.00 | 0.00 | 0.00 | 90 | 1011.5 |
| 20260506083016 | 56 | 248 | 3.5 | 12.2 | 0.00 | 0.00 | 0.00 | 90 | 1011.8 |
| 20260506082516 | 56 | 205 | 3.5 | 12.2 | 0.00 | 0.00 | 0.00 | 90 | 1011.8 |
| 20260506082016 | 56 | 227 | 3.5 | 10.4 | 0.00 | 0.00 | 0.00 | 90 | 1011.7 |
| 20260506081517 | 56 | 28 | 3.5 | 9.6 | 0.00 | 0.00 | 0.00 | 90 | 1011.8 |
| 20260506081016 | 56 | 194 | 3.5 | 9.6 | 0.00 | 0.00 | 0.00 | 90 | 1011.8 |
| 20260506080515 | 56 | 251 | 2.6 | 12.2 | 0.00 | 0.00 | 0.00 | 90 | 1011.9 |
| 20260506073516 | 56 | 270 | 2.6 | 9.6 | 0.00 | 0.00 | 0.00 | 89 | 1012.0 |
| 20260506073017 | 56 | 235 | 2.6 | 10.4 | 0.00 | 0.00 | 0.00 | 89 | 1012.1 |
| 20260506073013 | 56 | 222 | 2.6 | 10.4 | 0.00 | 0.00 | 0.00 | 89 | 1012.1 |
| 20260506072008 | 56 | 219 | 2.6 | 9.6 | 0.00 | 0.00 | 0.00 | 88 | 1012.2 |
| 20260506071502 | 56 | 300 | 2.6 | 8.7 | 0.00 | 0.00 | 0.00 | 88 | 1012.2 |
| 20260506070956 | 56 | 192 | 2.6 | 9.6 | 0.00 | 0.00 | 0.00 | 88 | 1012.3 |
| 20260506070451 | 56 | 201 | 2.6 | 9.6 | 0.00 | 0.00 | 0.00 | 88 | 1012.2 |
| 20260506062436 | 57 | 192 | 3.5 | 9.6 | 0.00 | 0.00 | 0.00 | 88 | 1012.0 |
| 20260506061935 | 57 | 325 | 3.5 | 9.6 | 0.00 | 0.00 | 0.00 | 88 | 1012.1 |
| 20260506061435 | 57 | 213 | 3.5 | 8.7 | 0.00 | 0.00 | 0.00 | 87 | 1011.9 |
| 20260506060935 | 57 | 226 | 2.6 | 10.4 | 0.00 | 0.00 | 0.00 | 87 | 1011.9 |
| 20260506060436 | 57 | 167 | 2.6 | 10.4 | 0.00 | 0.00 | 0.00 | 87 | 1011.9 |
| 20260506051142 | 58 | 198 | 5.2 | 13.0 | 0.00 | 0.00 | 0.00 | 87 | 1012.1 |
| 20260506050405 | 58 | 159 | 4.3 | 13.0 | 0.00 | 0.00 | 0.00 | 87 | 1012.1 |
| 20260506044847 | 57 | 230 | 4.3 | 13.0 | 0.00 | 0.00 | 0.00 | 87 | 1012.1 |
| 20260506044340 | 57 | 247 | 4.3 | 13.0 | 0.00 | 0.00 | 0.00 | 87 | 1012.1 |
| 20260506043834 | 57 | 163 | 4.3 | 13.0 | 0.00 | 0.00 | 0.00 | 87 | 1012.1 |
| 20260506043328 | 57 | 157 | 4.3 | 18.2 | 0.00 | 0.00 | 0.00 | 87 | 1012.1 |
| 20260506042822 | 57 | 205 | 4.3 | 18.2 | 0.00 | 0.00 | 0.00 | 87 | 1012.1 |
| 20260506042317 | 57 | 257 | 3.5 | 13.0 | 0.00 | 0.00 | 0.00 | 87 | 1012.2 |
| 20260506041811 | 57 | 233 | 4.3 | 16.5 | 0.00 | 0.00 | 0.00 | 87 | 1012.3 |
| 20260506041536 | 57 | 236 | 4.3 | 16.5 | 0.00 | 0.00 | 0.00 | 87 | 1012.3 |
| 20260506040805 | 57 | 147 | 2.6 | 13.9 | 0.00 | 0.00 | 0.00 | 87 | 1012.3 |
| 20260506040306 | 57 | 227 | 2.6 | 12.2 | 0.00 | 0.00 | 0.00 | 86 | 1012.3 |
| 20260506035805 | 57 | 279 | 2.6 | 12.2 | 0.00 | 0.00 | 0.00 | 86 | 1012.3 |
| 20260506035306 | 57 | 189 | 3.5 | 9.6 | 0.00 | 0.00 | 0.00 | 86 | 1012.5 |
| 20260506034804 | 57 | 225 | 3.5 | 10.4 | 0.00 | 0.00 | 0.00 | 86 | 1012.4 |
| 20260506034541 | 57 | 231 | 4.3 | 13.0 | 0.00 | 0.00 | 0.00 | 86 | 1012.5 |
| 20260506034306 | 57 | 225 | 4.3 | 13.0 | 0.00 | 0.00 | 0.00 | 86 | 1012.4 |
| 20260506033304 | 57 | 232 | 4.3 | 10.4 | 0.00 | 0.00 | 0.00 | 86 | 1012.4 |
| 20260506032805 | 57 | 259 | 4.3 | 9.6 | 0.00 | 0.00 | 0.00 | 86 | 1012.3 |
| 20260506032306 | 57 | 232 | 3.5 | 11.3 | 0.00 | 0.00 | 0.00 | 86 | 1012.3 |
| 20260506031804 | 57 | 235 | 2.6 | 11.3 | 0.00 | 0.00 | 0.00 | 86 | 1012.2 |
| 20260506031534 | 57 | 221 | 2.6 | 11.3 | 0.00 | 0.00 | 0.00 | 85 | 1012.3 |
| 20260506030804 | 57 | 212 | 3.5 | 12.2 | 0.00 | 0.00 | 0.00 | 85 | 1012.5 |
| 20260506030303 | 57 | 211 | 4.3 | 12.2 | 0.00 | 0.00 | 0.00 | 85 | 1012.5 |
| 20260506025805 | 57 | 207 | 3.5 | 13.9 | 0.00 | 0.00 | 0.00 | 85 | 1012.6 |
| 20260506025536 | 57 | 207 | 2.6 | 13.9 | 0.00 | 0.00 | 0.00 | 85 | 1012.5 |
| 20260506025030 | 57 | 161 | 2.6 | 7.8 | 0.00 | 0.00 | 0.00 | 85 | 1012.4 |
| 20260506024527 | 57 | 232 | 3.5 | 10.4 | 0.00 | 0.00 | 0.00 | 85 | 1012.5 |
| 20260506024249 | 57 | 184 | 3.5 | 10.4 | 0.00 | 0.00 | 0.00 | 85 | 1012.5 |
| 20260506023512 | 57 | 180 | 3.5 | 10.4 | 0.00 | 0.00 | 0.00 | 85 | 1012.5 |
| 20260506022735 | 57 | 198 | 4.3 | 10.4 | 0.00 | 0.00 | 0.00 | 85 | 1012.4 |
| 20260506022500 | 58 | 232 | 3.5 | 9.6 | 0.00 | 0.00 | 0.00 | 84 | 1012.5 |
| 20260506021723 | 57 | 221 | 3.5 | 11.3 | 0.00 | 0.00 | 0.00 | 84 | 1012.4 |
| 20260506021216 | 58 | 133 | 2.6 | 11.3 | 0.00 | 0.00 | 0.00 | 84 | 1012.4 |
| 20260506020711 | 58 | 281 | 2.6 | 11.3 | 0.00 | 0.00 | 0.00 | 84 | 1012.4 |
| 20260506020437 | 58 | 234 | 3.5 | 11.3 | 0.00 | 0.00 | 0.00 | 84 | 1012.3 |
| 20260506015929 | 58 | 257 | 3.5 | 12.2 | 0.00 | 0.00 | 0.00 | 83 | 1012.4 |
| 20260506015159 | 58 | 153 | 3.5 | 12.2 | 0.00 | 0.00 | 0.00 | 83 | 1012.3 |
| 20260506014659 | 58 | 295 | 3.5 | 8.7 | 0.00 | 0.00 | 0.00 | 83 | 1012.3 |
| 20260506014159 | 58 | 213 | 3.5 | 7.8 | 0.00 | 0.00 | 0.00 | 83 | 1012.2 |
| 20260506013659 | 58 | 209 | 3.5 | 13.0 | 0.00 | 0.00 | 0.00 | 83 | 1012.2 |
| 20260506013159 | 58 | 186 | 3.5 | 13.0 | 0.00 | 0.00 | 0.00 | 82 | 1012.2 |
| 20260506012659 | 58 | 200 | 4.3 | 12.2 | 0.00 | 0.00 | 0.00 | 82 | 1012.1 |
| 20260506012159 | 58 | 265 | 4.3 | 12.2 | 0.00 | 0.00 | 0.00 | 82 | 1012.1 |
| 20260506011659 | 58 | 299 | 4.3 | 17.4 | 0.00 | 0.00 | 0.00 | 82 | 1012.0 |
| 20260506011158 | 58 | 227 | 5.2 | 17.4 | 0.00 | 0.00 | 0.00 | 82 | 1011.9 |
| 20260506010657 | 58 | 238 | 4.3 | 15.6 | 0.00 | 0.00 | 0.00 | 82 | 1011.8 |
| 20260506010156 | 58 | 223 | 4.3 | 15.6 | 0.00 | 0.00 | 0.00 | 82 | 1011.9 |
| 20260506005656 | 58 | 239 | 4.3 | 12.2 | 0.00 | 0.00 | 0.00 | 82 | 1011.7 |
| 20260506005154 | 58 | 199 | 5.2 | 13.9 | 0.00 | 0.00 | 0.00 | 81 | 1011.7 |
| 20260506004924 | 58 | 228 | 5.2 | 13.9 | 0.00 | 0.00 | 0.00 | 81 | 1011.6 |
| 20260506004153 | 58 | 208 | 6.1 | 13.0 | 0.00 | 0.00 | 0.00 | 81 | 1011.4 |
| 20260506003656 | 58 | 198 | 7.0 | 21.7 | 0.00 | 0.00 | 0.00 | 81 | 1011.5 |
| 20260506003428 | 59 | 222 | 6.1 | 20.9 | 0.00 | 0.00 | 0.00 | 81 | 1011.3 |
| 20260506002650 | 59 | 238 | 6.1 | 18.2 | 0.00 | 0.00 | 0.00 | 81 | 1011.3 |
| 20260506002144 | 59 | 156 | 6.1 | 17.4 | 0.00 | 0.00 | 0.00 | 81 | 1011.3 |
| 20260506001643 | 59 | 238 | 5.2 | 16.5 | 0.00 | 0.00 | 0.00 | 80 | 1011.1 |
| 20260506001638 | 59 | 183 | 6.1 | 17.4 | 0.00 | 0.00 | 0.00 | 80 | 1011.3 |
| 20260506001127 | 59 | 208 | 6.1 | 15.6 | 0.00 | 0.00 | 0.00 | 80 | 1011.0 |
| 20260506000120 | 59 | 208 | 7.0 | 19.1 | 0.00 | 0.00 | 0.00 | 80 | 1011.0 |
| 20260505235614 | 59 | 200 | 6.1 | 19.1 | 0.00 | 0.00 | 0.00 | 80 | 1011.0 |
| 20260505235108 | 59 | 253 | 5.2 | 17.4 | 0.00 | 0.00 | 0.00 | 80 | 1010.8 |
| 20260505234602 | 59 | 235 | 6.1 | 20.0 | 0.00 | 0.00 | 0.00 | 80 | 1010.8 |
| 20260505234056 | 59 | 161 | 6.1 | 20.0 | 0.00 | 0.00 | 0.00 | 80 | 1010.4 |
| 20260505233550 | 59 | 175 | 6.1 | 14.8 | 0.00 | 0.00 | 0.00 | 80 | 1010.4 |
| 20260505233044 | 59 | 248 | 6.1 | 20.0 | 0.00 | 0.00 | 0.00 | 79 | 1010.4 |
| 20260505232537 | 59 | 190 | 6.1 | 19.1 | 0.00 | 0.00 | 0.00 | 79 | 1010.4 |
| 20260505232033 | 60 | 173 | 6.1 | 19.1 | 0.00 | 0.00 | 0.00 | 79 | 1010.2 |
| 20260505231804 | 60 | 235 | 5.2 | 16.5 | 0.00 | 0.00 | 0.00 | 79 | 1010.2 |
| 20260505231655 | 60 | 181 | 5.2 | 16.5 | 0.00 | 0.00 | 0.00 | 78 | 1010.3 |
| 20260505230533 | 60 | 273 | 6.1 | 18.2 | 0.00 | 0.00 | 0.00 | 78 | 1010.3 |
| 20260505230033 | 60 | 139 | 6.1 | 18.2 | 0.00 | 0.00 | 0.00 | 78 | 1010.3 |
| 20260505225534 | 60 | 132 | 6.1 | 14.8 | 0.00 | 0.00 | 0.00 | 77 | 1010.2 |
| 20260505225035 | 60 | 209 | 5.2 | 17.4 | 0.00 | 0.00 | 0.00 | 77 | 1010.1 |
| 20260505224535 | 61 | 239 | 4.3 | 17.4 | 0.00 | 0.00 | 0.00 | 77 | 1010.2 |
| 20260505224038 | 61 | 102 | 5.2 | 15.6 | 0.00 | 0.00 | 0.00 | 77 | 1010.2 |
| 20260505224033 | 61 | 175 | 4.3 | 13.9 | 0.00 | 0.00 | 0.00 | 77 | 1010.2 |
| 20260505223035 | 61 | 275 | 5.2 | 15.6 | 0.00 | 0.00 | 0.00 | 77 | 1010.2 |
| 20260505222534 | 61 | 225 | 5.2 | 13.9 | 0.00 | 0.00 | 0.00 | 77 | 1010.1 |
| 20260505222034 | 61 | 221 | 5.2 | 18.2 | 0.00 | 0.00 | 0.00 | 77 | 1010.0 |
| 20260505221533 | 61 | 215 | 6.1 | 18.2 | 0.00 | 0.00 | 0.00 | 77 | 1009.9 |
| 20260505221305 | 61 | 247 | 6.1 | 17.4 | 0.00 | 0.00 | 0.00 | 77 | 1010.0 |
| 20260505220536 | 61 | 222 | 5.2 | 17.4 | 0.00 | 0.00 | 0.00 | 77 | 1010.1 |
| 20260505220033 | 61 | 220 | 6.1 | 20.9 | 0.00 | 0.00 | 0.00 | 76 | 1010.1 |
| 20260505220027 | 61 | 238 | 7.0 | 20.9 | 0.00 | 0.00 | 0.00 | 76 | 1009.9 |
| 20260505215018 | 61 | 229 | 6.1 | 15.6 | 0.00 | 0.00 | 0.00 | 76 | 1009.9 |
| 20260505214742 | 61 | 228 | 7.0 | 15.6 | 0.00 | 0.00 | 0.00 | 75 | 1009.8 |
| 20260505214006 | 61 | 246 | 6.1 | 15.6 | 0.00 | 0.00 | 0.00 | 75 | 1009.8 |
| 20260505213500 | 61 | 161 | 5.2 | 13.9 | 0.00 | 0.00 | 0.00 | 75 | 1009.7 |
| 20260505213225 | 62 | 224 | 5.2 | 17.4 | 0.00 | 0.00 | 0.00 | 75 | 1009.6 |
| 20260505212448 | 62 | 197 | 6.1 | 17.4 | 0.00 | 0.00 | 0.00 | 75 | 1009.6 |
| 20260505211942 | 62 | 229 | 6.1 | 21.7 | 0.00 | 0.00 | 0.00 | 75 | 1009.5 |
| 20260505211436 | 62 | 257 | 6.1 | 21.7 | 0.00 | 0.00 | 0.00 | 75 | 1009.4 |
| 20260505210929 | 62 | 235 | 6.1 | 15.6 | 0.00 | 0.00 | 0.00 | 75 | 1009.3 |
| 20260505210424 | 62 | 234 | 7.0 | 23.5 | 0.00 | 0.00 | 0.00 | 75 | 1009.3 |
| 20260505205918 | 62 | 167 | 6.1 | 23.5 | 0.00 | 0.00 | 0.00 | 74 | 1009.4 |
| 20260505205412 | 62 | 135 | 7.0 | 18.2 | 0.00 | 0.00 | 0.00 | 74 | 1009.4 |
| 20260505204906 | 62 | 227 | 6.1 | 18.2 | 0.00 | 0.00 | 0.00 | 73 | 1009.3 |
| 20260505204400 | 62 | 91 | 5.2 | 13.9 | 0.00 | 0.00 | 0.00 | 74 | 1009.5 |
| 20260505203855 | 63 | 222 | 5.2 | 18.2 | 0.00 | 0.00 | 0.00 | 74 | 1009.4 |
| 20260505203348 | 63 | 236 | 4.3 | 18.2 | 0.00 | 0.00 | 0.00 | 74 | 1009.5 |
| 20260505203112 | 63 | 240 | 4.3 | 20.9 | 0.00 | 0.00 | 0.00 | 74 | 1009.5 |
| 20260505202336 | 63 | 205 | 5.2 | 20.9 | 0.00 | 0.00 | 0.00 | 74 | 1009.6 |